| time (UTC) | temp F | wind direction | speed MPH | gust MPH | rain 1hr in | rain 24hr in | rain mn in | humidity % | barometer mb |
| 20260504202056 | 66 | 235 | 8.0 | 23.0 | 0.00 | 0.00 | 0.00 | 54 | 1009.1 |
| 20260504201557 | 66 | 216 | 10.0 | 23.0 | 0.00 | 0.00 | 0.00 | 51 | 1009.1 |
| 20260504201056 | 67 | 244 | 6.0 | 19.0 | 0.00 | 0.00 | 0.00 | 52 | 1009.0 |
| 20260504200556 | 67 | 210 | 10.0 | 23.0 | 0.00 | 0.00 | 0.00 | 51 | 1009.1 |
| 20260504195557 | 67 | 234 | 9.0 | 23.0 | 0.00 | 0.00 | 0.00 | 50 | 1009.3 |
| 20260504195055 | 67 | 182 | 11.0 | 23.0 | 0.00 | 0.00 | 0.00 | 47 | 1009.2 |
| 20260504194603 | 67 | 146 | 11.0 | 19.0 | 0.00 | 0.00 | 0.00 | 48 | 1009.2 |
| 20260504194059 | 67 | 228 | 12.0 | 21.0 | 0.00 | 0.00 | 0.00 | 48 | 1009.2 |
| 20260504193556 | 67 | 179 | 10.0 | 21.0 | 0.00 | 0.00 | 0.00 | 50 | 1009.4 |
| 20260504193100 | 68 | 151 | 10.0 | 20.0 | 0.00 | 0.00 | 0.00 | 46 | 1009.2 |
| 20260504192555 | 69 | 178 | 8.0 | 19.0 | 0.00 | 0.00 | 0.00 | 47 | 1009.3 |
| 20260504192056 | 69 | 194 | 7.0 | 19.0 | 0.00 | 0.00 | 0.00 | 46 | 1009.3 |
| 20260504191559 | 69 | 215 | 7.0 | 26.0 | 0.00 | 0.00 | 0.00 | 47 | 1009.4 |
| 20260504191056 | 69 | 213 | 8.0 | 26.0 | 0.00 | 0.00 | 0.00 | 47 | 1009.3 |
| 20260504190556 | 69 | 182 | 10.0 | 20.0 | 0.00 | 0.00 | 0.00 | 45 | 1009.4 |
| 20260504190110 | 69 | 156 | 6.0 | 14.0 | 0.00 | 0.00 | 0.00 | 47 | 1009.4 |
| 20260504185555 | 69 | 273 | 6.0 | 15.0 | 0.00 | 0.00 | 0.00 | 44 | 1009.4 |
| 20260504185055 | 69 | 248 | 7.0 | 18.0 | 0.00 | 0.00 | 0.00 | 44 | 1009.4 |
| 20260504184613 | 68 | 196 | 9.0 | 18.0 | 0.00 | 0.00 | 0.00 | 44 | 1009.5 |
| 20260504184056 | 69 | 147 | 7.0 | 17.0 | 0.00 | 0.00 | 0.00 | 46 | 1009.5 |
| 20260504183555 | 69 | 205 | 6.0 | 15.0 | 0.00 | 0.00 | 0.00 | 43 | 1009.6 |
| 20260504183059 | 69 | 212 | 9.0 | 16.0 | 0.00 | 0.00 | 0.00 | 43 | 1009.8 |
| 20260504182557 | 69 | 218 | 8.0 | 16.0 | 0.00 | 0.00 | 0.00 | 44 | 1009.8 |
| 20260504182055 | 69 | 236 | 6.0 | 21.0 | 0.00 | 0.00 | 0.00 | 47 | 1009.9 |
| 20260504181556 | 68 | 184 | 9.0 | 21.0 | 0.00 | 0.00 | 0.00 | 44 | 1010.0 |
| 20260504181055 | 69 | 160 | 8.0 | 21.0 | 0.00 | 0.00 | 0.00 | 43 | 1010.0 |
| 20260504180554 | 69 | 232 | 10.0 | 24.0 | 0.00 | 0.00 | 0.00 | 42 | 1010.0 |
| 20260504180057 | 69 | 265 | 8.0 | 24.0 | 0.00 | 0.00 | 0.00 | 45 | 1010.0 |
| 20260504175556 | 68 | 217 | 12.0 | 25.0 | 0.00 | 0.00 | 0.00 | 38 | 1010.1 |
| 20260504175056 | 69 | 170 | 9.0 | 25.0 | 0.00 | 0.00 | 0.00 | 41 | 1010.1 |
| 20260504174609 | 69 | 229 | 9.0 | 21.0 | 0.00 | 0.00 | 0.00 | 40 | 1010.1 |
| 20260504174057 | 69 | 251 | 6.0 | 23.0 | 0.00 | 0.00 | 0.00 | 42 | 1010.2 |
| 20260504173558 | 68 | 240 | 11.0 | 24.0 | 0.00 | 0.00 | 0.00 | 40 | 1010.2 |
| 20260504173103 | 68 | 235 | 12.0 | 24.0 | 0.00 | 0.00 | 0.00 | 39 | 1010.3 |
| 20260504172557 | 68 | 241 | 8.0 | 23.0 | 0.00 | 0.00 | 0.00 | 38 | 1010.3 |
| 20260504172055 | 68 | 171 | 11.0 | 23.0 | 0.00 | 0.00 | 0.00 | 41 | 1010.4 |
| 20260504171559 | 68 | 271 | 8.0 | 23.0 | 0.00 | 0.00 | 0.00 | 41 | 1010.5 |
| 20260504171059 | 68 | 206 | 10.0 | 23.0 | 0.00 | 0.00 | 0.00 | 40 | 1010.6 |
| 20260504170557 | 68 | 243 | 8.0 | 21.0 | 0.00 | 0.00 | 0.00 | 40 | 1010.6 |
| 20260504151056 | 65 | 261 | 9.0 | 20.0 | 0.00 | 0.00 | 0.00 | 44 | 1011.9 |
| 20260504150557 | 65 | 223 | 8.0 | 20.0 | 0.00 | 0.00 | 0.00 | 49 | 1011.9 |
| 20260504141055 | 62 | 323 | 6.0 | 16.0 | 0.00 | 0.00 | 0.00 | 47 | 1012.0 |
| 20260504140556 | 62 | 205 | 7.0 | 16.0 | 0.00 | 0.00 | 0.00 | 49 | 1012.0 |
| 20260504130558 | 61 | 230 | 3.0 | 11.0 | 0.00 | 0.00 | 0.00 | 52 | 1012.5 |
| 20260504110557 | 46 | 288 | 2.0 | 7.0 | 0.00 | 0.00 | 0.00 | 71 | 1012.8 |
| 20260504100557 | 41 | 0.0 | 0.0 | 0.00 | 0.00 | 0.00 | 77 | 1012.4 | |
| 20260504081609 | 41 | 0.0 | 0.0 | 0.00 | 0.00 | 0.00 | 74 | 1011.9 | |
| 20260504081059 | 41 | 0.0 | 0.0 | 0.00 | 0.00 | 0.00 | 75 | 1011.8 | |
| 20260504080557 | 41 | 0.0 | 0.0 | 0.00 | 0.00 | 0.00 | 75 | 1011.8 | |
| 20260504050553 | 41 | 0.0 | 0.0 | 0.00 | 0.00 | 0.00 | 72 | 1011.3 | |
| 20260504045556 | 41 | 0.0 | 0.0 | 0.00 | 0.00 | 0.00 | 70 | 1011.5 | |
| 20260504045053 | 41 | 0.0 | 0.0 | 0.00 | 0.00 | 0.00 | 70 | 1011.4 | |
| 20260504044559 | 41 | 0.0 | 0.0 | 0.00 | 0.00 | 0.00 | 70 | 1011.4 | |
| 20260504044053 | 41 | 0.0 | 0.0 | 0.00 | 0.00 | 0.00 | 69 | 1011.4 | |
| 20260504043553 | 42 | 0.0 | 0.0 | 0.00 | 0.00 | 0.00 | 69 | 1011.3 | |
| 20260504043058 | 42 | 0.0 | 0.0 | 0.00 | 0.00 | 0.00 | 69 | 1011.4 | |
| 20260504042557 | 42 | 0.0 | 0.0 | 0.00 | 0.00 | 0.00 | 68 | 1011.4 | |
| 20260504042100 | 42 | 0.0 | 0.0 | 0.00 | 0.00 | 0.00 | 67 | 1011.4 | |
| 20260504041558 | 42 | 0.0 | 0.0 | 0.00 | 0.00 | 0.00 | 67 | 1011.3 | |
| 20260504041056 | 42 | 0.0 | 0.0 | 0.00 | 0.00 | 0.00 | 67 | 1011.3 | |
| 20260504040557 | 42 | 0.0 | 0.0 | 0.00 | 0.00 | 0.00 | 69 | 1011.3 | |
| 20260504040105 | 42 | 0.0 | 0.0 | 0.00 | 0.00 | 0.00 | 68 | 1011.3 | |
| 20260504035556 | 42 | 0.0 | 0.0 | 0.00 | 0.00 | 0.00 | 67 | 1011.2 | |
| 20260504035056 | 43 | 0.0 | 0.0 | 0.00 | 0.00 | 0.00 | 66 | 1011.2 | |
| 20260504034601 | 43 | 0.0 | 0.0 | 0.00 | 0.00 | 0.00 | 65 | 1011.2 | |
| 20260504034055 | 43 | 0.0 | 0.0 | 0.00 | 0.00 | 0.00 | 65 | 1011.3 | |
| 20260504033555 | 43 | 0.0 | 0.0 | 0.00 | 0.00 | 0.00 | 65 | 1011.1 | |
| 20260504033126 | 43 | 0.0 | 0.0 | 0.00 | 0.00 | 0.00 | 65 | 1011.2 | |
| 20260504032554 | 44 | 0.0 | 0.0 | 0.00 | 0.00 | 0.00 | 63 | 1011.1 | |
| 20260504032056 | 44 | 0.0 | 0.0 | 0.00 | 0.00 | 0.00 | 62 | 1010.9 | |
| 20260504031601 | 44 | 0.0 | 0.0 | 0.00 | 0.00 | 0.00 | 62 | 1010.9 | |
| 20260504031053 | 44 | 0.0 | 0.0 | 0.00 | 0.00 | 0.00 | 63 | 1011.0 | |
| 20260504030556 | 44 | 0.0 | 0.0 | 0.00 | 0.00 | 0.00 | 64 | 1011.0 | |
| 20260504030104 | 44 | 0.0 | 0.0 | 0.00 | 0.00 | 0.00 | 63 | 1010.9 | |
| 20260504025556 | 45 | 0.0 | 0.0 | 0.00 | 0.00 | 0.00 | 61 | 1011.0 | |
| 20260504025057 | 45 | 0.0 | 0.0 | 0.00 | 0.00 | 0.00 | 57 | 1011.0 | |
| 20260504024556 | 45 | 0.0 | 0.0 | 0.00 | 0.00 | 0.00 | 58 | 1011.1 | |
| 20260504024057 | 45 | 0.0 | 0.0 | 0.00 | 0.00 | 0.00 | 59 | 1011.1 | |
| 20260504023556 | 45 | 0.0 | 0.0 | 0.00 | 0.00 | 0.00 | 58 | 1011.1 | |
| 20260504023104 | 45 | 0.0 | 0.0 | 0.00 | 0.00 | 0.00 | 56 | 1011.1 | |
| 20260504022558 | 45 | 0.0 | 0.0 | 0.00 | 0.00 | 0.00 | 58 | 1011.1 | |
| 20260504022053 | 46 | 0.0 | 0.0 | 0.00 | 0.00 | 0.00 | 54 | 1011.2 | |
| 20260504021556 | 46 | 0.0 | 0.0 | 0.00 | 0.00 | 0.00 | 55 | 1011.1 | |
| 20260504021053 | 46 | 0.0 | 0.0 | 0.00 | 0.00 | 0.00 | 54 | 1011.1 | |
| 20260504020553 | 46 | 0.0 | 0.0 | 0.00 | 0.00 | 0.00 | 55 | 1011.0 | |
| 20260504015553 | 47 | 0.0 | 0.0 | 0.00 | 0.00 | 0.00 | 52 | 1011.1 | |
| 20260504015054 | 47 | 0.0 | 0.0 | 0.00 | 0.00 | 0.00 | 52 | 1011.0 | |
| 20260504014555 | 47 | 0.0 | 0.0 | 0.00 | 0.00 | 0.00 | 53 | 1011.1 | |
| 20260504014053 | 47 | 0.0 | 0.0 | 0.00 | 0.00 | 0.00 | 56 | 1011.1 | |
| 20260504013553 | 47 | 0.0 | 0.0 | 0.00 | 0.00 | 0.00 | 58 | 1011.0 | |
| 20260504013109 | 47 | 0.0 | 0.0 | 0.00 | 0.00 | 0.00 | 56 | 1010.9 | |
| 20260504012553 | 47 | 0.0 | 0.0 | 0.00 | 0.00 | 0.00 | 58 | 1010.9 | |
| 20260504012053 | 48 | 0.0 | 0.0 | 0.00 | 0.00 | 0.00 | 55 | 1010.7 | |
| 20260504011557 | 48 | 0.0 | 0.0 | 0.00 | 0.00 | 0.00 | 53 | 1010.7 | |
| 20260504011058 | 48 | 0.0 | 0.0 | 0.00 | 0.00 | 0.00 | 56 | 1010.7 | |
| 20260504010558 | 48 | 0.0 | 0.0 | 0.00 | 0.00 | 0.00 | 54 | 1010.6 | |
| 20260504010113 | 49 | 0.0 | 0.0 | 0.00 | 0.00 | 0.00 | 52 | 1010.5 | |
| 20260504005601 | 49 | 0.0 | 0.0 | 0.00 | 0.00 | 0.00 | 54 | 1010.4 | |
| 20260504005059 | 49 | 0.0 | 0.0 | 0.00 | 0.00 | 0.00 | 52 | 1010.4 | |
| 20260504004624 | 49 | 0.0 | 0.0 | 0.00 | 0.00 | 0.00 | 50 | 1010.3 | |
| 20260504004059 | 49 | 0.0 | 0.0 | 0.00 | 0.00 | 0.00 | 53 | 1010.2 | |
| 20260504003601 | 49 | 0.0 | 0.0 | 0.00 | 0.00 | 0.00 | 53 | 1010.2 | |
| 20260504003057 | 49 | 0.0 | 0.0 | 0.00 | 0.00 | 0.00 | 51 | 1010.2 | |
| 20260504002558 | 49 | 0.0 | 0.0 | 0.00 | 0.00 | 0.00 | 52 | 1010.1 | |
| 20260504002058 | 49 | 0.0 | 0.0 | 0.00 | 0.00 | 0.00 | 55 | 1010.1 | |
| 20260504001612 | 49 | 0.0 | 0.0 | 0.00 | 0.00 | 0.00 | 53 | 1010.0 | |
| 20260504001058 | 50 | 0.0 | 0.0 | 0.00 | 0.00 | 0.00 | 50 | 1009.9 | |
| 20260504000558 | 50 | 0.0 | 0.0 | 0.00 | 0.00 | 0.00 | 48 | 1009.9 | |
| 20260504000058 | 50 | 0.0 | 0.0 | 0.00 | 0.00 | 0.00 | 47 | 1009.9 | |
| 20260503235558 | 50 | 0.0 | 0.0 | 0.00 | 0.00 | 0.00 | 46 | 1009.8 | |
| 20260503235058 | 51 | 0.0 | 0.0 | 0.00 | 0.00 | 0.00 | 46 | 1009.6 | |
| 20260503234556 | 51 | 0.0 | 0.0 | 0.00 | 0.00 | 0.00 | 45 | 1009.6 | |
| 20260503234058 | 52 | 0.0 | 0.0 | 0.00 | 0.00 | 0.00 | 42 | 1009.6 | |
| 20260503233558 | 52 | 1.0 | 2.0 | 0.00 | 0.00 | 0.00 | 43 | 1009.5 | |
| 20260503233059 | 53 | 1.0 | 3.0 | 0.00 | 0.00 | 0.00 | 42 | 1009.5 | |
| 20260503232557 | 53 | 294 | 1.0 | 4.0 | 0.00 | 0.00 | 0.00 | 42 | 1009.4 |
| 20260503232057 | 53 | 294 | 1.0 | 6.0 | 0.00 | 0.00 | 0.00 | 41 | 1009.3 |
| 20260503231559 | 54 | 284 | 2.0 | 7.0 | 0.00 | 0.00 | 0.00 | 41 | 1009.3 |
| 20260503231059 | 54 | 292 | 3.0 | 8.0 | 0.00 | 0.00 | 0.00 | 43 | 1009.2 |
| 20260503230559 | 54 | 297 | 2.0 | 8.0 | 0.00 | 0.00 | 0.00 | 42 | 1009.3 |
| 20260503230103 | 55 | 321 | 3.0 | 7.0 | 0.00 | 0.00 | 0.00 | 40 | 1009.2 |
| 20260503225601 | 55 | 296 | 2.0 | 7.0 | 0.00 | 0.00 | 0.00 | 40 | 1009.1 |
| 20260503225058 | 55 | 16 | 1.0 | 9.0 | 0.00 | 0.00 | 0.00 | 40 | 1009.0 |
| 20260503224556 | 55 | 338 | 2.0 | 11.0 | 0.00 | 0.00 | 0.00 | 39 | 1009.0 |
| 20260503224058 | 55 | 298 | 4.0 | 11.0 | 0.00 | 0.00 | 0.00 | 39 | 1009.0 |
| 20260503223558 | 55 | 272 | 5.0 | 13.0 | 0.00 | 0.00 | 0.00 | 39 | 1008.8 |
| 20260503223100 | 55 | 316 | 5.0 | 13.0 | 0.00 | 0.00 | 0.00 | 41 | 1009.0 |
| 20260503222557 | 56 | 295 | 6.0 | 12.0 | 0.00 | 0.00 | 0.00 | 40 | 1009.0 |
| 20260503222057 | 56 | 233 | 6.0 | 14.0 | 0.00 | 0.00 | 0.00 | 39 | 1008.9 |
| 20260503221559 | 56 | 302 | 6.0 | 17.0 | 0.00 | 0.00 | 0.00 | 39 | 1008.9 |
| 20260503221058 | 56 | 282 | 8.0 | 17.0 | 0.00 | 0.00 | 0.00 | 39 | 1008.8 |
| 20260503220558 | 56 | 333 | 6.0 | 16.0 | 0.00 | 0.00 | 0.00 | 36 | 1008.8 |
| 20260503220057 | 56 | 285 | 8.0 | 16.0 | 0.00 | 0.00 | 0.00 | 37 | 1008.8 |
| 20260503215554 | 56 | 267 | 5.0 | 17.0 | 0.00 | 0.00 | 0.00 | 39 | 1008.9 |
| 20260503215057 | 56 | 22 | 5.0 | 18.0 | 0.00 | 0.00 | 0.00 | 40 | 1009.0 |
| 20260503214600 | 56 | 280 | 6.0 | 18.0 | 0.00 | 0.00 | 0.00 | 38 | 1008.9 |
| 20260503214101 | 56 | 289 | 9.0 | 18.0 | 0.00 | 0.00 | 0.00 | 39 | 1008.9 |
| 20260503213558 | 56 | 298 | 6.0 | 17.0 | 0.00 | 0.00 | 0.00 | 40 | 1008.8 |
| 20260503213107 | 56 | 301 | 8.0 | 23.0 | 0.00 | 0.00 | 0.00 | 39 | 1008.8 |
| 20260503212558 | 56 | 280 | 8.0 | 23.0 | 0.00 | 0.00 | 0.00 | 39 | 1008.7 |
| 20260503212059 | 56 | 296 | 8.0 | 24.0 | 0.00 | 0.00 | 0.00 | 39 | 1008.8 |
| 20260503211557 | 56 | 303 | 11.0 | 24.0 | 0.00 | 0.00 | 0.00 | 40 | 1008.7 |
| 20260503211056 | 56 | 294 | 6.0 | 16.0 | 0.00 | 0.00 | 0.00 | 41 | 1008.7 |
| 20260503210600 | 57 | 326 | 7.0 | 16.0 | 0.00 | 0.00 | 0.00 | 39 | 1008.8 |
| 20260503210104 | 56 | 309 | 4.0 | 16.0 | 0.00 | 0.00 | 0.00 | 43 | 1008.8 |
| 20260503205558 | 56 | 325 | 7.0 | 16.0 | 0.00 | 0.00 | 0.00 | 43 | 1008.8 |
| 20260503205059 | 56 | 290 | 3.0 | 14.0 | 0.00 | 0.00 | 0.00 | 43 | 1008.7 |
| 20260503204609 | 57 | 330 | 6.0 | 13.0 | 0.00 | 0.00 | 0.00 | 42 | 1008.8 |
| 20260503204054 | 57 | 311 | 5.0 | 14.0 | 0.00 | 0.00 | 0.00 | 39 | 1008.8 |
| 20260503203600 | 58 | 312 | 6.0 | 15.0 | 0.00 | 0.00 | 0.00 | 39 | 1008.8 |
| 20260503203106 | 57 | 274 | 6.0 | 20.0 | 0.00 | 0.00 | 0.00 | 41 | 1008.7 |
| 20260503202556 | 57 | 286 | 6.0 | 25.0 | 0.00 | 0.00 | 0.00 | 39 | 1008.8 |